Back to catalog

STARLINK-32628

AliveCommunicationsVLEO
NORAD 62122·PAYLOAD·🇺🇸 United States

Launched Nov 27, 2024 from Cape Canaveral Space Force Station

Loading…

Next Passes (next 24 hours)

TLE

FreshSource: CelesTrak SupGP

Epoch: Sep 14, 2026, 21:25 UTC

1 62122C 24222J   26257.89284722 -.00036324  00000+0 -13158-2 0  2575
2 62122  43.0020 147.6280 0001409 266.0288 165.0342 15.27593980    19

Track STARLINK-32628 in real time with AllMySat

Download on the App Store